Meteo pe oră la Bolshie Sontaki

Astăzi, 10 Mai, Luni

Timp Temperatura Precipitaţii Vânt Presiune Umiditate
00:00 +8°C° 0 mm 4 m/s 754 mmHg 64%
01:00 +8°C° 0 mm 4 m/s 755 mmHg 63%
02:00 +8°C° 0 mm 4 m/s 755 mmHg 62%
03:00 +8°C° 0 mm 4 m/s 755 mmHg 65%
04:00 +8°C° 0 mm 4 m/s 755 mmHg 67%
05:00 +7°C° 0 mm 4 m/s 755 mmHg 69%
06:00 +8°C° 0 mm 4 m/s 755 mmHg 67%
07:00 +9°C° 0 mm 5 m/s 755 mmHg 66%
08:00 +12°C° 0 mm 5 m/s 755 mmHg 65%
09:00 +13°C° 0 mm 5 m/s 755 mmHg 62%
10:00 +15°C° 0 mm 6 m/s 755 mmHg 59%
11:00 +17°C° 0 mm 6 m/s 755 mmHg 56%
12:00 +17°C° 0 mm 6 m/s 755 mmHg 55%
13:00 +19°C° 0 mm 6 m/s 755 mmHg 53%
14:00 +20°C° 0 mm 6 m/s 755 mmHg 52%
15:00 +20°C° 0 mm 6 m/s 755 mmHg 55%
16:00 +19°C° 0 mm 5 m/s 755 mmHg 58%
17:00 +19°C° 0 mm 5 m/s 754 mmHg 60%
18:00 +17°C° 0 mm 4 m/s 755 mmHg 67%
19:00 +15°C° 0 mm 4 m/s 755 mmHg 73%
20:00 +13°C° 0 mm 3 m/s 755 mmHg 79%
21:00 +12°C° 0 mm 4 m/s 755 mmHg 80%
22:00 +11°C° 0 mm 4 m/s 755 mmHg 80%
23:00 +10°C° 0 mm 4 m/s 755 mmHg 81%

Mâine, 11 Mai, Marţi

Timp Temperatura Precipitaţii Vânt Presiune Umiditate
00:00 +10°C° 0 mm 4 m/s 755 mmHg 82%
01:00 +8°C° 0 mm 4 m/s 755 mmHg 82%
02:00 +8°C° 0 mm 4 m/s 756 mmHg 83%
03:00 +7°C° 0 mm 4 m/s 756 mmHg 83%
04:00 +7°C° 0 mm 4 m/s 756 mmHg 84%
05:00 +7°C° 0 mm 4 m/s 756 mmHg 84%
06:00 +8°C° 0 mm 4 m/s 756 mmHg 77%
07:00 +10°C° 0 mm 5 m/s 756 mmHg 71%
08:00 +13°C° 0 mm 6 m/s 756 mmHg 65%
09:00 +14°C° 0 mm 6 m/s 756 mmHg 59%
10:00 +15°C° 0 mm 6 m/s 755 mmHg 54%
11:00 +17°C° 0 mm 6 m/s 755 mmHg 49%
12:00 +17°C° 0 mm 6 m/s 755 mmHg 47%
13:00 +19°C° 0 mm 6 m/s 755 mmHg 45%
14:00 +19°C° 0 mm 5 m/s 754 mmHg 43%
15:00 +19°C° 0 mm 5 m/s 754 mmHg 46%
16:00 +19°C° 0 mm 5 m/s 754 mmHg 50%
17:00 +19°C° 0 mm 5 m/s 754 mmHg 53%
18:00 +17°C° 0 mm 4 m/s 753 mmHg 60%
19:00 +14°C° 0 mm 4 m/s 753 mmHg 68%
20:00 +13°C° 0 mm 3 m/s 753 mmHg 75%
21:00 +12°C° 0 mm 3 m/s 753 mmHg 77%
22:00 +12°C° 0 mm 4 m/s 753 mmHg 78%
23:00 +11°C° 0 mm 4 m/s 753 mmHg 80%

Poimâine, 12 Mai, Miercuri

Timp Temperatura Precipitaţii Vânt Presiune Umiditate
00:00 +11°C° 0 mm 3 m/s 753 mmHg 84%
01:00 +10°C° 0 mm 3 m/s 753 mmHg 87%
02:00 +10°C° 0 mm 3 m/s 752 mmHg 91%
03:00 +10°C° 0 mm 3 m/s 752 mmHg 92%
04:00 +10°C° 0 mm 4 m/s 752 mmHg 94%
05:00 +10°C° 0 mm 4 m/s 752 mmHg 95%
06:00 +10°C° 0 mm 5 m/s 752 mmHg 87%
07:00 +11°C° 0 mm 6 m/s 753 mmHg 80%
08:00 +12°C° 0 mm 7 m/s 753 mmHg 72%
09:00 +14°C° 0 mm 7 m/s 753 mmHg 67%
10:00 +15°C° 0 mm 7 m/s 752 mmHg 61%
11:00 +15°C° 0 mm 7 m/s 752 mmHg 55%
12:00 +16°C° 0 mm 7 m/s 752 mmHg 54%
13:00 +16°C° 0 mm 6 m/s 752 mmHg 52%
14:00 +17°C° 0 mm 6 m/s 751 mmHg 51%
15:00 +17°C° 0 mm 6 m/s 751 mmHg 52%
16:00 +17°C° 0 mm 5 m/s 750 mmHg 54%
17:00 +18°C° 0 mm 4 m/s 750 mmHg 56%
18:00 +15°C° 0 mm 4 m/s 749 mmHg 63%
19:00 +13°C° 0 mm 3 m/s 749 mmHg 69%
20:00 +12°C° 0 mm 2 m/s 748 mmHg 75%
21:00 +12°C° 0 mm 2 m/s 748 mmHg 76%
22:00 +12°C° 0 mm 1 m/s 747 mmHg 77%
23:00 +11°C° 0 mm 1 m/s 747 mmHg 78%

13 Mai, Joi

Timp Temperatura Precipitaţii Vânt Presiune Umiditate
00:00 +11°C° 0.2 mm 1 m/s 746 mmHg 80%
01:00 +10°C° 0.2 mm 2 m/s 746 mmHg 81%
02:00 +10°C° 0.2 mm 2 m/s 745 mmHg 83%
03:00 +9°C° 1.3 mm 2 m/s 744 mmHg 85%
04:00 +9°C° 1.3 mm 3 m/s 744 mmHg 88%
05:00 +8°C° 1.3 mm 3 m/s 743 mmHg 90%
06:00 +8°C° 1.6 mm 3 m/s 743 mmHg 91%
07:00 +7°C° 1.6 mm 4 m/s 743 mmHg 92%
08:00 +7°C° 1.6 mm 4 m/s 743 mmHg 94%
09:00 +9°C° 0.5 mm 5 m/s 743 mmHg 88%
10:00 +10°C° 0.5 mm 5 m/s 743 mmHg 83%
11:00 +11°C° 0.5 mm 6 m/s 743 mmHg 78%
12:00 +11°C° 0.1 mm 6 m/s 743 mmHg 75%
13:00 +11°C° 0.1 mm 6 m/s 743 mmHg 73%
14:00 +13°C° 0.1 mm 6 m/s 743 mmHg 70%
15:00 +11°C° 0.2 mm 6 m/s 743 mmHg 74%
16:00 +11°C° 0.2 mm 6 m/s 743 mmHg 79%
17:00 +11°C° 0.2 mm 6 m/s 743 mmHg 83%
18:00 +11°C° 0.4 mm 6 m/s 743 mmHg 85%
19:00 +11°C° 0.4 mm 6 m/s 743 mmHg 87%
20:00 +11°C° 0.4 mm 6 m/s 743 mmHg 89%
21:00 +12°C° 0.1 mm 5 m/s 744 mmHg 88%
22:00 +12°C° 0.1 mm 5 m/s 744 mmHg 88%
23:00 +12°C° 0.1 mm 5 m/s 744 mmHg 88%

14 Mai, Vineri

Timp Temperatura Precipitaţii Vânt Presiune Umiditate
00:00 +10°C° 0 mm 5 m/s 744 mmHg 89%
01:00 +11°C° 0 mm 4 m/s 744 mmHg 91%
02:00 +11°C° 0 mm 4 m/s 744 mmHg 93%
03:00 +11°C° 0.2 mm 3 m/s 743 mmHg 94%
04:00 +11°C° 0.2 mm 3 m/s 743 mmHg 95%
05:00 +10°C° 0.2 mm 3 m/s 743 mmHg 97%
06:00 +11°C° 0.3 mm 3 m/s 743 mmHg 97%
07:00 +11°C° 0.3 mm 3 m/s 742 mmHg 97%
08:00 +11°C° 0.3 mm 3 m/s 742 mmHg 97%
09:00 +12°C° 0.2 mm 2 m/s 742 mmHg 95%
10:00 +13°C° 0.2 mm 2 m/s 742 mmHg 93%
11:00 +14°C° 0.2 mm 2 m/s 743 mmHg 91%
12:00 +13°C° 0.2 mm 3 m/s 743 mmHg 86%
13:00 +14°C° 0.2 mm 3 m/s 743 mmHg 82%
14:00 +16°C° 0.2 mm 3 m/s 743 mmHg 77%
15:00 +14°C° 0.1 mm 3 m/s 743 mmHg 81%
16:00 +14°C° 0.1 mm 3 m/s 743 mmHg 86%
17:00 +14°C° 0.1 mm 2 m/s 743 mmHg 90%
18:00 +13°C° 0 mm 2 m/s 744 mmHg 92%
19:00 +13°C° 0 mm 2 m/s 744 mmHg 93%
20:00 +12°C° 0 mm 2 m/s 744 mmHg 95%
21:00 +12°C° 0 mm 2 m/s 744 mmHg 95%
22:00 +10°C° 0 mm 2 m/s 744 mmHg 96%
23:00 +10°C° 0 mm 2 m/s 745 mmHg 96%

15 Mai, Sâmbătă

Timp Temperatura Precipitaţii Vânt Presiune Umiditate
00:00 +10°C° 0 mm 2 m/s 745 mmHg 96%
01:00 +9°C° 0 mm 2 m/s 745 mmHg 95%
02:00 +9°C° 0 mm 2 m/s 745 mmHg 95%
03:00 +9°C° 0 mm 2 m/s 745 mmHg 95%
04:00 +9°C° 0 mm 2 m/s 745 mmHg 95%
05:00 +9°C° 0 mm 2 m/s 745 mmHg 95%
06:00 +10°C° 0 mm 2 m/s 746 mmHg 91%
07:00 +13°C° 0 mm 2 m/s 746 mmHg 86%
08:00 +15°C° 0 mm 2 m/s 746 mmHg 82%
09:00 +16°C° 0.1 mm 2 m/s 746 mmHg 77%
10:00 +17°C° 0.1 mm 2 m/s 746 mmHg 72%
11:00 +18°C° 0.1 mm 3 m/s 746 mmHg 67%
12:00 +19°C° 0.4 mm 3 m/s 746 mmHg 65%
13:00 +19°C° 0.4 mm 3 m/s 746 mmHg 63%
14:00 +19°C° 0.4 mm 3 m/s 746 mmHg 61%
15:00 +19°C° 0.2 mm 2 m/s 746 mmHg 63%
16:00 +19°C° 0.2 mm 2 m/s 746 mmHg 64%
17:00 +19°C° 0.2 mm 2 m/s 746 mmHg 66%
18:00 +17°C° 0.2 mm 2 m/s 747 mmHg 73%
19:00 +16°C° 0.2 mm 2 m/s 747 mmHg 80%
20:00 +14°C° 0.2 mm 2 m/s 747 mmHg 87%
21:00 +13°C° 0 mm 2 m/s 747 mmHg 88%
22:00 +13°C° 0 mm 2 m/s 747 mmHg 90%
23:00 +12°C° 0 mm 1 m/s 747 mmHg 92%
Arată mai mult

Formular de consimțământ

Meteoprog și furnizorii noștri de servicii pot stoca și accesa date personale, precum cookies, identificatori de dispozitiv sau alte tehnologii similare pe dispozitivul dumneavoastră și procesa astfel de date pentru a personaliza conținutul și reclamele, dar și pentru a oferi caracteristici de social media și pentru a analiza traficul.

  • Stocarea și/sau accesarea informațiilor pe dispozitivul dumneavoastră

    Cookies, identificatori de dispozitiv sau alte informații pot fi stocate sau accesate pe dispozitiv în scopurile indicate mai sus.

  • Reclame și conținut personalizat, evaluarea reclamelor și a conținutului, informații despre audiențe și dezvoltarea produselor

    Reclamele și conținutul pot fi personalizate pe baza unui profil. Pot fi adăugate date suplimentare pentru a personaliza mai bine reclamele și conținutul. Performanța reclamelor și conținutului poate fi măsurată. Pot fi obținute informații despre utilizatorii care au văzut reclamele și conținutul. Aceste date pot fi utilizate pentru a dezvolta sau îmbunătăți experiența utilizatorilor, sistemele și software-ul.

Dând clic pe ‘Sunt de acord’, permiteți utilizarea cookie-urilor menționate, a identificatorilor de dispozitiv, balizelor web sau altor tehnologii similare. Setările pot fi modificate din browser-ul dispozitivului dumneavoastră.

În anumite scopuri, interesele legitime pot prima asupra consimțământului. Puteți citi mai multe informații în acest sens în Politica privind Confidențialitatea Datelor și Cookie.